Location: Hurecourt
(47.9030°N, 6.0653°E)
Time: 20:43:54
(UTC+00:00)

AQUA - Pass Details

Date: 14 July 2020
Orbit: 701 x 704 km, 98.2° (Epoch: 14 August)

Event Time Altitude Azimuth Distance (km) Brightness Sun altitude
Rises 01:26:17 0° 16° (NNE) 3,105 8.8 -16.6°
Reaches altitude 10° 01:28:34 10° 19° (NNE) 2,182 7.7 -16.4°
Maximum altitude 01:33:20 67° 102° (ESE) 765 4.0 -16.1°
Enters shadow 01:36:15 23° 180° (S) 1,468 5.0 -15.9°
